Find Telecom 2B

NORAD ID: 21939 Int'l Des: 1992-021 Owner: FTEL Country: F operational
HEOCIRCULAR

当前视图

正在加载3D地球...

About Telecom 2B

Telecom 2B (NORAD 21939) is a satellite launched Apr 15, 1992 by FTEL of F. It operates in HEO, CIRCULAR orbit with a mass of 2275.00 kg.

即将过境

Passes for default location (London). Set your location on the main map for personalized predictions.

高度历史

Loading altitude history...

两行轨道根数

1 21939U 92021A 26194.83771233 -.00000294 00000-0 00000+0 0 9999
2 21939 14.5574 3.5217 0017437 99.4468 87.7528 0.99512218117656
Epoch: Jul 13, 2026 • Age: 13 hours

当前状态

高度 35978.1 km
远地点 / 近地点 N/A
速度 3.07 km/s
星下点 6.44°N, 45.03°W
发射日期 Apr 15, 1992
运行时间 34.2 years
类型 other

技术详情

分类 Payload
质量 2275.00 kg
干质量 1130.00 kg
总质量 2275.00 kg
长度 3.10 m
直径 1.90 m
跨度 22.00 m
形状 Box + 2 Pan
制造商 MMST
平台类型 Eurostar 2000
阶段状态 In Orbit
所有者/国家 FTEL/F

Most Searched